Domov               UVHVVR             MKGP            O straneh              
ZDRAVSTVENO VARSTVO RASTLIN
  MREŽA AGROMET. POSTAJ
 ► PROGNOSTIČNA OBVESTILA
AGROMETEOROLOŠKI PODATKI -
ARSO
OBVLADOVANJE TVEGANJ ZARADI
NEUGODNIH VREMENSKIH RAZMER
  ► NARAVNE NESREČE
  ► SUŠA/MOČA
  ► NAMAKANJE
  ► ŽLED (gozdarstvo)
KARTOGRAFSKI PRIKAZI
SPLETNE POVEZAVE
PROJEKTI IN PUBLIKACIJE

AGROMETEOROLOŠKA MREŽA: VREMENSKE POSTAJE IN FENOLOŠKA OPAZOVANJA

Pregled podatkov za lokacijo Dragonja, meteorološka postaja 42389

Pregled senzorjev na lokaciji

ID Ime Zadnja
vrednost
Datum
zadnje
spremembe
Tip
senzorja
2095 Temperatura 2 m ( °C) 21,45 °C 25.6.2017 02:30 50YA
2096 Relativna vlaga 2 m (% RH) 80,93 % RH 25.6.2017 02:30 50YA
2097 Omočenost lista (U) 1 U 25.6.2017 02:30 A730WET
2098 Padavine 0.2 mm (mm) 0 mm 25.6.2017 02:30 Rain-O-Matic

Pregled podatkov zadnjih 24 ur

Zap.
št.
Datum in čas Dragonja
Omočenost
lista
Padavine
0.2
mm
Relativna
vlaga
2
m
Temperatura
2
m
0 25.6.2017 01:30 1 0 80,93 21,45
1 25.6.2017 01:00 1 0 80,62 21,78
2 25.6.2017 00:30 1 0 78,88 22,38
3 25.6.2017 00:00 1 0 80,55 22,51
4 24.6.2017 23:30 1 0 80,84 22,35
5 24.6.2017 23:00 1 0 81,63 22,79
6 24.6.2017 22:30 2 0 83,98 22,71
7 24.6.2017 22:00 2 0 81,96 23,42
8 24.6.2017 21:30 1 0 80,01 23,74
9 24.6.2017 21:00 1 0 73,92 25,02
10 24.6.2017 20:30 0 0 71 25,82
11 24.6.2017 20:00 0 0 67,48 26,58
12 24.6.2017 19:30 0 0 62,88 27,78
13 24.6.2017 19:00 0 0 57,18 29,15
14 24.6.2017 18:30 0 0 50,44 30,94
15 24.6.2017 18:00 0 0 49,77 31,03
16 24.6.2017 17:30 0 0 50,64 31,44
17 24.6.2017 17:00 0 0 40,16 33,19
18 24.6.2017 16:30 0 0 37,58 34,15
19 24.6.2017 16:00 0 0 40,04 33,6
20 24.6.2017 15:30 0 0 42,46 33,57
21 24.6.2017 15:00 0 0 43,11 33,35
22 24.6.2017 14:30 0 0 39,15 33,79
23 24.6.2017 14:00 0 0 36,52 34,29
24 24.6.2017 13:30 0 0 36,77 34,37
25 24.6.2017 13:00 0 0 38,04 34,56
26 24.6.2017 12:30 0 0 35,58 34,49
27 24.6.2017 12:00 0 0 36,93 33,76
28 24.6.2017 11:30 0 0 39,15 33,09
29 24.6.2017 11:00 0 0 39,42 32,41
30 24.6.2017 10:30 0 0 39,95 32,41
31 24.6.2017 10:00 0 0 34,43 33,44
32 24.6.2017 09:30 0 0 34,7 32,6
33 24.6.2017 09:00 0 0 37,04 31,69
34 24.6.2017 08:30 0 0 46,39 30,4
35 24.6.2017 08:00 0 0 52,56 28,75
36 24.6.2017 07:30 0 0 60,73 26,74
37 24.6.2017 07:00 0 0 65,18 25,47
38 24.6.2017 06:30 0 0 71,1 23,82
39 24.6.2017 06:00 1 0 77,25 22,31
40 24.6.2017 05:30 2 0 86,28 20,28
41 24.6.2017 05:00 4 0 90,34 19,77
42 24.6.2017 04:30 4 0 90 19,77
43 24.6.2017 04:00 3 0 88,18 20,08
© 2011 Ministrstvo za kmetijstvo, gozdarstvo in prehrano. Vse pravice pridržane.